Regional Weather Roundup
Issued by NWS Goodland, KS

Home | Current Version | Previous Version | Graphics & Text | Print | Product List | Glossary On
Versions: 1 2 3 4 5 6 7 8 9 10 11 12 13 14 15 16 17 18 19 20 21 22 23 24 25 26 27 28 29 30 31 32 33 34 35 36 37 38 39 40 41 42 43 44 45 46 47 48 49 50
000
ASUS43 KGLD 102208
RWRGLD

GOODLAND FORECAST AREA HOURLY WEATHER ROUNDUP
NATIONAL WEATHER SERVICE GOODLAND KS
300 PM MST SAT DEC 10 2016

...OFFICIAL OBSERVATIONS...

CITY           SKY/WX    TMP DP  RH WIND       PRES   REMARKS
GOODLAND KS    CLOUDY    35  25  66 SE13      29.77S
HILL CITY KS   CLOUDY    38  25  59 S9        29.88F
IMPERIAL NEB   CLOUDY    29  22  75 SE13      29.80F WCI  19
MCCOOK NEB     CLOUDY    34  25  69 SE10      29.84F
AKRON CO       CLOUDY    35  26  69 S6        29.74F
BURLINGTON CO  CLOUDY    54  21  27 S9        29.75S
LIMON CO       CLOUDY    58  18  21 SW9       29.74S
$$

...UNOFFICIAL OBSERVATIONS...

CITY           SKY/WX    TMP DP  RH WIND       PRES   REMARKS
COLBY KS       SUNNY     36  28  75 S9        29.83S
LENORA KS        N/A     36  32  85 MISG        N/A
NORTON KS      SUNNY     36  19  51 SE9       29.86F
SHARON SPRINGS   N/A     40  29  64 S12G20      N/A
TRIBUNE KS     CLOUDY    45  28  53 SE15      29.80F
TRENTON NEB      N/A     32  32 100 S5          N/A
KIT CARSON CO    N/A     55  26  32 MISG        N/A
YUMA CO        PTSUNNY   30  23  74 CALM      29.75F
$$




USA.gov is the U.S. government's official web portal to all federal, state and local government web resources and services.